Home > Weather > Francistown > Past weeks

Flag for Botswana Weather for the Past 2 Weeks in Francistown, Botswana

Now
59 °F

Clear.


Feels Like: 60 °F
Forecast: 49 / 81 °F
Wind: 3 mph from North

Location: Francistown Airport

Current Time: May 4, 2016 at 12:10:04 AM

Latest Report: May 3, 2016 at 9:00 PM


Visibility: 10 mi

Pressure: 30.12 "Hg (26.79 "Hg at 989m altitude)

Humidity: 63%

Dew Point: 46 °F

Location of FrancistownLocation

Historic Weather in Francistown — Graph

°F

Francistown Temperature Yesterday

Maximum temperature yesterday: 84 °F (at 2:00 PM)
Minimum temperature yesterday: 48 °F (at 6:00 AM)
Average temperature yesterday: 71 °F

High & Low Weather Summary for the Past Weeks

 TemperatureHumidityPressure
High91 °F (Apr 21, 1:00 PM)100% (Apr 19, 6:00 AM)30.30 "Hg (Apr 19, 6:00 AM)
Low48 °F (May 3, 6:00 AM)20% (Apr 30, 3:00 PM)29.95 "Hg (Apr 29, 4:00 PM)
Average75 °F49%30.11 "Hg
* Reported Apr 18 9:00 PM — May 3 9:00 PM, Francistown, Weather by CustomWeather, © 2016

Note: Actual official high and low records may vary slightly from our data, if they occured in-between our weather recording intervals... More about our weather records

Advertising

Francistown Weather History for the Previous 24 Hours

Scroll right to see more
 ConditionsComfort  
Time TempWeatherWind HumidityBarometerVisibility
9:00 PM
Tue, May 3
59 °FClear.3 mph63%30.12 "Hg10 mi
8:00 PM59 °FClear.2 mph63%30.09 "Hg10 mi
7:00 PM68 °FClear.2 mph43%30.09 "Hg10 mi
6:00 PM77 °FClear.2 mph32%30.07 "Hg10 mi
5:00 PM82 °FClear.7 mph26%30.07 "Hg10 mi
4:00 PM84 °FSunny.3 mph25%30.07 "Hg10 mi
3:00 PM84 °FPassing clouds.8 mph27%30.07 "HgN/A
2:00 PM84 °FSunny.5 mph25%30.09 "Hg10 mi
1:00 PM82 °FSunny.5 mph28%30.12 "Hg10 mi
12:00 PM81 °FSunny.12 mph32%30.12 "Hg10 mi
11:00 AM79 °FSunny.2 mph37%30.18 "Hg10 mi
10:00 AM77 °FSunny.6 mph39%30.18 "Hg10 mi
9:00 AM70 °FSunny.5 mph53%30.18 "Hg10 mi
8:00 AM61 °FSunny.5 mph72%30.18 "Hg10 mi
7:00 AM48 °FSunny.2 mph87%30.15 "Hg10 mi
6:00 AM48 °FSunny.3 mph87%30.15 "Hg10 mi
Weather by CustomWeather, © 2016

See weather overviewHow to use our weather pages